ROMMA est une association bénévole à but non lucratif. Votre soutien est indispensable : ADHERER à ROMMA ou FAIRE un DON

Pinsot - (38, Isère)

Vallée du Haut Bréda (750 m)   Longitude: 06° 06' E   Latitude: 45° 21' N Station partenaire n°101
 

Détail journalier du     <<     >>

Température Precipitation Humidité Pression Vent Dir Rafale Dir. rafale Ensol.
Heure (°C) (mm) (%) (hPa) (km/h) (km/h) (min)
01:00 8.208010142SSO10SSO0
02:00 8.607910143SSO18SO0
03:00 8.208110152SSO13SSO0
04:00 8.508110163SSO15SO0
05:00 7.40.29010163SSO11SSO0
06:00 7.60.29310173SSO13SSO0
07:00 7.909210173SSO15SSO0
08:00 7.709210174SSO15SSO0
09:00 7.409310171SSO13SSO0
10:00 7.708910184SSO15SSO0
11:00 7.808910181SSO10SSO0
12:00 9.8087101705SSO14
13:00 11.1080101703NNE60
14:00 10.1082101602NNE58
15:00 10.607910162E16ENE37
16:00 9.9083101702NNE7
17:00 9.508110171SSO8S19
18:00 7.608410181SSO13SSO0
19:00 6.408610182SSO11S0
20:00 5.608710183SSO15SSO0
21:00 5.408710183SSO11SSO0
22:00 4.908910183SSO13SSO0
23:00 4.708910194SSO13SSO0
minuit 4.808910194SSO13SSO0

Graphique du 18-12-2019

 

Serveur OMMA